Time,TemperatureF,DewpointF,PressureIn,WindDirection,WindDirectionDegrees,WindSpeedMPH,WindSpeedGustMPH,Humidity,HourlyPrecipIn,Conditions,Clouds,dailyrainin,SolarRadiationWatts/m^2,SoftwareType,DateUTC
2013-01-05 00:14:00,60.9,59.0,30.28,North,351,4.0,6.0,93,0.00,,,0.00,0,weatherlink.com 1.10,2013-01-05 05:14:00,
2013-01-05 00:29:00,60.9,59.0,30.28,North,5,0.0,8.0,93,0.00,,,0.00,0,weatherlink.com 1.10,2013-01-05 05:29:00,
2013-01-05 00:44:00,60.9,59.0,30.28,North,360,5.0,8.0,93,0.00,,,0.00,0,weatherlink.com 1.10,2013-01-05 05:44:00,
2013-01-05 00:59:00,60.9,59.0,30.28,NNE,19,6.0,9.0,93,0.00,,,0.00,0,weatherlink.com 1.10,2013-01-05 05:59:00,
2013-01-05 01:14:00,60.7,59.0,30.28,NNE,30,6.0,8.0,93,0.00,,,0.00,0,weatherlink.com 1.10,2013-01-05 06:14:00,
2013-01-05 01:29:00,60.5,59.0,30.28,North,5,6.0,9.0,93,0.00,,,0.00,0,weatherlink.com 1.10,2013-01-05 06:29:00,
2013-01-05 01:44:00,60.4,58.0,30.27,NNE,17,6.0,7.0,93,0.00,,,0.00,0,weatherlink.com 1.10,2013-01-05 06:44:00,
2013-01-05 01:59:00,60.3,58.0,30.27,NNE,13,4.0,8.0,93,0.00,,,0.00,0,weatherlink.com 1.10,2013-01-05 06:59:00,
2013-01-05 02:14:00,60.2,58.0,30.27,North,355,5.0,9.0,93,0.00,,,0.00,0,weatherlink.com 1.10,2013-01-05 07:14:00,
2013-01-05 02:29:00,60.0,58.0,30.27,North,9,4.0,9.0,92,0.00,,,0.00,0,weatherlink.com 1.10,2013-01-05 07:29:00,
2013-01-05 02:44:00,59.9,58.0,30.27,North,355,5.0,9.0,92,0.00,,,0.00,0,weatherlink.com 1.10,2013-01-05 07:44:00,
2013-01-05 02:59:00,59.8,58.0,30.27,North,10,6.0,9.0,92,0.00,,,0.00,0,weatherlink.com 1.10,2013-01-05 07:59:00,
2013-01-05 03:14:00,59.6,57.0,30.27,North,5,4.0,7.0,92,0.00,,,0.00,0,weatherlink.com 1.10,2013-01-05 08:14:00,
2013-01-05 03:29:00,59.6,57.0,30.27,NNE,13,1.0,5.0,92,0.00,,,0.00,0,weatherlink.com 1.10,2013-01-05 08:29:00,
2013-01-05 03:44:00,59.5,57.0,30.26,North,360,1.0,4.0,92,0.00,,,0.00,0,weatherlink.com 1.10,2013-01-05 08:44:00,
2013-01-05 03:59:00,59.5,57.0,30.26,North,5,2.0,4.0,92,0.00,,,0.00,0,weatherlink.com 1.10,2013-01-05 08:59:00,
2013-01-05 04:14:00,59.3,57.0,30.26,North,360,2.0,3.0,92,0.00,,,0.00,0,weatherlink.com 1.10,2013-01-05 09:14:00,
2013-01-05 04:29:00,59.3,57.0,30.26,North,355,1.0,4.0,92,0.00,,,0.00,0,weatherlink.com 1.10,2013-01-05 09:29:00,
2013-01-05 04:44:00,59.4,57.0,30.26,North,11,4.0,4.0,92,0.00,,,0.00,0,weatherlink.com 1.10,2013-01-05 09:44:00,
2013-01-05 04:59:00,59.5,57.0,30.26,North,349,3.0,6.0,92,0.00,,,0.00,0,weatherlink.com 1.10,2013-01-05 09:59:00,
2013-01-05 05:14:00,59.7,57.0,30.27,North,11,4.0,6.0,91,0.00,,,0.00,0,weatherlink.com 1.10,2013-01-05 10:14:00,
2013-01-05 05:29:00,59.9,57.0,30.27,NNE,15,1.0,4.0,91,0.00,,,0.00,0,weatherlink.com 1.10,2013-01-05 10:29:00,
2013-01-05 05:44:00,59.9,57.0,30.27,North,360,2.0,6.0,91,0.00,,,0.00,0,weatherlink.com 1.10,2013-01-05 10:44:00,
2013-01-05 05:59:00,59.7,57.0,30.27,North,360,2.0,4.0,91,0.00,,,0.00,0,weatherlink.com 1.10,2013-01-05 10:59:00,
2013-01-05 06:14:00,59.6,57.0,30.27,North,5,3.0,5.0,91,0.00,,,0.00,0,weatherlink.com 1.10,2013-01-05 11:14:00,
2013-01-05 06:29:00,59.5,57.0,30.28,North,355,3.0,6.0,91,0.00,,,0.00,0,weatherlink.com 1.10,2013-01-05 11:29:00,
2013-01-05 06:44:00,59.4,57.0,30.29,North,5,3.0,5.0,91,0.00,,,0.00,0,weatherlink.com 1.10,2013-01-05 11:44:00,
2013-01-05 06:59:00,59.3,56.0,30.28,NNW,333,5.0,7.0,90,0.00,,,0.00,0,weatherlink.com 1.10,2013-01-05 11:59:00,
2013-01-05 07:14:00,58.9,56.0,30.29,North,355,4.0,6.0,90,0.00,,,0.00,0,weatherlink.com 1.10,2013-01-05 12:14:00,
2013-01-05 07:30:00,58.5,56.0,30.30,North,350,1.0,4.0,91,0.00,,,0.00,12,weatherlink.com 1.10,2013-01-05 12:30:00,
2013-01-05 07:45:00,58.5,56.0,30.30,North,355,2.0,4.0,92,0.00,,,0.00,26,weatherlink.com 1.10,2013-01-05 12:45:00,
2013-01-05 08:00:00,58.8,57.0,30.30,North,360,4.0,6.0,92,0.00,,,0.00,53,weatherlink.com 1.10,2013-01-05 13:00:00,
2013-01-05 08:15:00,59.4,57.0,30.30,NNE,17,3.0,6.0,91,0.00,,,0.00,54,weatherlink.com 1.10,2013-01-05 13:15:00,
2013-01-05 08:30:00,60.1,57.0,30.31,NE,46,2.0,7.0,89,0.00,,,0.00,72,weatherlink.com 1.10,2013-01-05 13:30:00,
2013-01-05 08:45:00,61.1,58.0,30.31,North,5,5.0,10.0,88,0.00,,,0.00,62,weatherlink.com 1.10,2013-01-05 13:45:00,
2013-01-05 09:00:00,61.7,58.0,30.30,North,355,4.0,8.0,86,0.00,,,0.00,53,weatherlink.com 1.10,2013-01-05 14:00:00,
2013-01-05 09:15:00,62.8,58.0,30.30,North,360,5.0,7.0,84,0.00,,,0.00,54,weatherlink.com 1.10,2013-01-05 14:15:00,
2013-01-05 09:30:00,64.3,59.0,30.31,NNE,22,3.0,10.0,82,0.00,,,0.00,98,weatherlink.com 1.10,2013-01-05 14:30:00,
2013-01-05 09:45:00,65.9,60.0,30.31,North,5,3.0,10.0,80,0.00,,,0.00,181,weatherlink.com 1.10,2013-01-05 14:45:00,
2013-01-05 10:00:00,68.5,61.0,30.31,North,355,5.0,9.0,76,0.00,,,0.00,443,weatherlink.com 1.10,2013-01-05 15:00:00,
2013-01-05 10:15:00,71.2,62.0,30.31,North,5,6.0,14.0,72,0.00,,,0.00,485,weatherlink.com 1.10,2013-01-05 15:15:00,
2013-01-05 10:30:00,72.6,62.0,30.30,North,9,5.0,12.0,69,0.00,,,0.00,515,weatherlink.com 1.10,2013-01-05 15:30:00,
2013-01-05 10:45:00,73.4,63.0,30.31,East,84,3.0,10.0,69,0.00,,,0.00,541,weatherlink.com 1.10,2013-01-05 15:45:00,
2013-01-05 11:00:00,74.3,63.0,30.30,NNW,330,3.0,9.0,67,0.00,,,0.00,568,weatherlink.com 1.10,2013-01-05 16:00:00,
2013-01-05 11:15:00,75.8,64.0,30.29,North,5,6.0,12.0,67,0.00,,,0.00,592,weatherlink.com 1.10,2013-01-05 16:15:00,
2013-01-05 11:30:00,76.5,64.0,30.29,NNE,19,4.0,10.0,66,0.00,,,0.00,605,weatherlink.com 1.10,2013-01-05 16:30:00,
2013-01-05 11:45:00,76.9,65.0,30.28,NNW,332,3.0,9.0,67,0.00,,,0.00,621,weatherlink.com 1.10,2013-01-05 16:45:00,
2013-01-05 12:00:00,76.6,65.0,30.27,NNE,22,4.0,10.0,68,0.00,,,0.00,628,weatherlink.com 1.10,2013-01-05 17:00:00,
2013-01-05 12:15:00,76.5,66.0,30.26,East,98,5.0,9.0,69,0.00,,,0.00,635,weatherlink.com 1.10,2013-01-05 17:15:00,
2013-01-05 12:31:00,76.8,66.0,30.25,SE,136,6.0,13.0,70,0.00,,,0.00,468,weatherlink.com 1.10,2013-01-05 17:31:00,
2013-01-05 12:46:00,76.4,66.0,30.25,East,88,1.0,13.0,70,0.00,,,0.00,193,weatherlink.com 1.10,2013-01-05 17:46:00,
2013-01-05 13:01:00,76.4,67.0,30.24,ENE,74,5.0,11.0,72,0.00,,,0.00,341,weatherlink.com 1.10,2013-01-05 18:01:00,
2013-01-05 13:16:00,75.7,66.0,30.24,North,355,2.0,7.0,72,0.00,,,0.00,531,weatherlink.com 1.10,2013-01-05 18:16:00,
2013-01-05 13:31:00,75.9,67.0,30.23,ENE,72,3.0,10.0,73,0.00,,,0.00,346,weatherlink.com 1.10,2013-01-05 18:31:00,
2013-01-05 13:46:00,75.3,67.0,30.23,NNE,16,5.0,9.0,75,0.00,,,0.00,178,weatherlink.com 1.10,2013-01-05 18:46:00,
2013-01-05 14:01:00,74.6,67.0,30.22,NNE,31,1.0,8.0,76,0.00,,,0.00,216,weatherlink.com 1.10,2013-01-05 19:01:00,
2013-01-05 14:16:00,74.3,67.0,30.22,North,9,3.0,8.0,78,0.00,,,0.00,272,weatherlink.com 1.10,2013-01-05 19:16:00,
2013-01-05 14:31:00,74.9,67.0,30.21,NW,323,1.0,6.0,76,0.00,,,0.00,155,weatherlink.com 1.10,2013-01-05 19:31:00,
2013-01-05 14:46:00,74.7,67.0,30.22,East,81,5.0,5.0,77,0.00,,,0.00,181,weatherlink.com 1.10,2013-01-05 19:46:00,
2013-01-05 15:01:00,74.7,67.0,30.21,ESE,110,4.0,5.0,78,0.00,,,0.00,149,weatherlink.com 1.10,2013-01-05 20:01:00,
2013-01-05 15:16:00,74.4,68.0,30.21,NNE,14,4.0,6.0,79,0.00,,,0.00,134,weatherlink.com 1.10,2013-01-05 20:16:00,
2013-01-05 15:31:00,74.2,67.0,30.22,NNE,19,3.0,6.0,79,0.00,,,0.00,155,weatherlink.com 1.10,2013-01-05 20:31:00,
2013-01-05 15:46:00,74.2,68.0,30.22,North,5,2.0,6.0,80,0.00,,,0.00,120,weatherlink.com 1.10,2013-01-05 20:46:00,
2013-01-05 16:01:00,74.7,69.0,30.22,ENE,72,1.0,5.0,81,0.00,,,0.00,345,weatherlink.com 1.10,2013-01-05 21:01:00,
2013-01-05 16:16:00,75.0,69.0,30.22,ENE,76,5.0,5.0,81,0.00,,,0.00,123,weatherlink.com 1.10,2013-01-05 21:16:00,
2013-01-05 16:31:00,74.3,68.0,30.23,NE,36,1.0,5.0,81,0.00,,,0.00,49,weatherlink.com 1.10,2013-01-05 21:31:00,
2013-01-05 16:46:00,73.7,68.0,30.22,NE,46,0.0,3.0,83,0.00,,,0.00,56,weatherlink.com 1.10,2013-01-05 21:46:00,
2013-01-05 17:01:00,73.0,68.0,30.23,NE,42,0.0,4.0,84,0.00,,,0.00,54,weatherlink.com 1.10,2013-01-05 22:01:00,
2013-01-05 17:16:00,72.4,67.0,30.23,NNE,13,0.0,6.0,84,0.00,,,0.00,26,weatherlink.com 1.10,2013-01-05 22:16:00,
2013-01-05 17:31:00,71.9,68.0,30.23,ESE,107,1.0,3.0,87,0.03,,,0.03,7,weatherlink.com 1.10,2013-01-05 22:31:00,
2013-01-05 17:46:00,70.6,68.0,30.23,North,9,0.0,1.0,90,0.09,,,0.09,0,weatherlink.com 1.10,2013-01-05 22:46:00,
2013-01-05 18:01:00,69.7,67.0,30.23,North,9,0.0,2.0,92,0.15,,,0.15,0,weatherlink.com 1.10,2013-01-05 23:01:00,
2013-01-05 18:16:00,69.0,67.0,30.24,East,101,0.0,2.0,93,0.18,,,0.18,0,weatherlink.com 1.10,2013-01-05 23:16:00,
2013-01-05 18:31:00,68.6,67.0,30.24,NNE,13,2.0,3.0,94,0.15,,,0.19,0,weatherlink.com 1.10,2013-01-05 23:31:00,
2013-01-05 18:46:00,68.3,67.0,30.25,NNE,19,0.0,3.0,95,0.11,,,0.20,0,weatherlink.com 1.10,2013-01-05 23:46:00,
2013-01-05 19:01:00,68.0,67.0,30.25,NE,50,1.0,3.0,95,0.04,,,0.20,0,weatherlink.com 1.10,2013-01-06 00:01:00,
2013-01-05 19:16:00,67.9,67.0,30.25,NNE,17,4.0,4.0,95,0.02,,,0.20,0,weatherlink.com 1.10,2013-01-06 00:16:00,
2013-01-05 19:31:00,67.8,67.0,30.25,North,5,0.0,3.0,96,0.01,,,0.20,0,weatherlink.com 1.10,2013-01-06 00:31:00,
2013-01-05 19:46:00,67.8,67.0,30.25,North,5,2.0,3.0,96,0.00,,,0.20,0,weatherlink.com 1.10,2013-01-06 00:46:00,
2013-01-05 20:01:00,67.7,67.0,30.26,NE,34,2.0,4.0,96,0.00,,,0.20,0,weatherlink.com 1.10,2013-01-06 01:01:00,
2013-01-05 20:16:00,67.7,67.0,30.26,North,360,2.0,3.0,96,0.00,,,0.20,0,weatherlink.com 1.10,2013-01-06 01:16:00,
2013-01-05 20:31:00,67.6,67.0,30.26,North,360,0.0,2.0,96,0.00,,,0.20,0,weatherlink.com 1.10,2013-01-06 01:31:00,
2013-01-05 20:46:00,67.6,67.0,30.27,North,360,0.0,1.0,96,0.00,,,0.20,0,weatherlink.com 1.10,2013-01-06 01:46:00,
2013-01-05 21:01:00,67.6,67.0,30.27,North,360,1.0,3.0,96,0.00,,,0.20,0,weatherlink.com 1.10,2013-01-06 02:01:00,
2013-01-05 21:16:00,67.7,67.0,30.26,North,5,1.0,3.0,97,0.00,,,0.20,0,weatherlink.com 1.10,2013-01-06 02:16:00,
2013-01-05 21:31:00,67.9,67.0,30.27,North,360,2.0,3.0,97,0.00,,,0.20,0,weatherlink.com 1.10,2013-01-06 02:31:00,
2013-01-05 21:46:00,68.0,67.0,30.27,North,11,1.0,4.0,97,0.00,,,0.20,0,weatherlink.com 1.10,2013-01-06 02:46:00,
2013-01-05 22:01:00,68.0,67.0,30.27,NNE,26,0.0,1.0,97,0.01,,,0.21,0,weatherlink.com 1.10,2013-01-06 03:01:00,
2013-01-05 22:16:00,68.0,67.0,30.27,NNE,26,0.0,1.0,97,0.04,,,0.24,0,weatherlink.com 1.10,2013-01-06 03:16:00,
2013-01-05 22:31:00,68.1,67.0,30.26,NNE,26,0.0,2.0,97,0.07,,,0.27,0,weatherlink.com 1.10,2013-01-06 03:31:00,
2013-01-05 22:46:00,68.1,67.0,30.26,NNE,18,1.0,4.0,97,0.12,,,0.32,0,weatherlink.com 1.10,2013-01-06 03:46:00,
2013-01-05 23:01:00,67.9,67.0,30.25,East,82,0.0,3.0,97,0.17,,,0.38,0,weatherlink.com 1.10,2013-01-06 04:01:00,
2013-01-05 23:16:00,67.9,67.0,30.25,NNE,33,2.0,3.0,97,0.16,,,0.40,0,weatherlink.com 1.10,2013-01-06 04:16:00,
2013-01-05 23:31:00,67.7,67.0,30.25,North,360,2.0,3.0,97,0.14,,,0.41,0,weatherlink.com 1.10,2013-01-06 04:31:00,
2013-01-05 23:46:00,67.6,67.0,30.24,North,9,0.0,3.0,97,0.08,,,0.41,0,weatherlink.com 1.10,2013-01-06 04:46:00,